,,,PA_Meas_PMT16A,,PR_Meas_QMR101_102,,RH_Meas_QMH101,,SR_Meas_QMS101,,TA_Meas_QMH101,,GenWind,,GenWind,
date,time,status,PA,status,PR,status,RH,status,SR,status,TA,status,DirAvg,status,SpdAvg,
2012-03-22, 00:00:04,VALID,1005.87,VALID,0,VALID,79.7981,VALID,0,VALID,25.4149,VALID,165,VALID,0.689453,
2012-03-22, 00:01:04,VALID,1005.86,VALID,0,VALID,79.6837,VALID,0.0815089,VALID,25.4149,VALID,179,VALID,0.523828,
2012-03-22, 00:02:04,VALID,1005.8,VALID,0,VALID,79.8515,VALID,0,VALID,25.4344,VALID,156,VALID,0.219922,
2012-03-22, 00:03:04,VALID,1005.83,VALID,0,VALID,79.554,VALID,0.0815089,VALID,25.4149,VALID,57,VALID,0.491016,
2012-03-22, 00:04:04,VALID,1005.85,VALID,0,VALID,79.0581,VALID,0.0815089,VALID,25.4149,VALID,221,VALID,0.729688,
2012-03-22, 00:05:04,VALID,1005.88,VALID,0,VALID,78.8369,VALID,0,VALID,25.4539,VALID,291,VALID,0.947656,
2012-03-22, 00:06:04,VALID,1005.86,VALID,0,VALID,77.1814,VALID,0,VALID,25.4539,VALID,275,VALID,1.84766,
2012-03-22, 00:07:04,VALID,1005.87,VALID,0,VALID,75.9302,VALID,0,VALID,25.4734,VALID,278,VALID,2.07344,
2012-03-22, 00:08:04,VALID,1005.92,VALID,0,VALID,76.4032,VALID,0,VALID,25.5123,VALID,290,VALID,0.982813,
2012-03-22, 00:09:04,VALID,1005.89,VALID,0,VALID,76.0676,VALID,0,VALID,25.5707,VALID,290,VALID,2.05859,
2012-03-22, 00:10:04,VALID,1005.87,VALID,0,VALID,76.2125,VALID,0,VALID,25.5921,VALID,340,VALID,0.664844,
2012-03-22, 00:11:04,VALID,1005.85,VALID,0,VALID,74.8851,VALID,0,VALID,25.5532,VALID,268,VALID,1.84766,
2012-03-22, 00:12:04,VALID,1005.85,VALID,0,VALID,74.8088,VALID,0,VALID,25.5337,VALID,287,VALID,1.46953,
2012-03-22, 00:13:04,VALID,1005.83,VALID,0,VALID,75.7472,VALID,0,VALID,25.4928,VALID,282,VALID,1.07539,
2012-03-22, 00:14:04,VALID,1005.84,VALID,0,VALID,75.709,VALID,0,VALID,25.4753,VALID,285,VALID,0.915625,
2012-03-22, 00:15:04,VALID,1005.82,VALID,0,VALID,76.3193,VALID,0,VALID,25.4169,VALID,300,VALID,1.00273,
2012-03-22, 00:16:04,VALID,1005.83,VALID,0,VALID,76.1057,VALID,0,VALID,25.3584,VALID,295,VALID,1.04648,
2012-03-22, 00:17:04,VALID,1005.85,VALID,0,VALID,76.1667,VALID,0,VALID,25.2786,VALID,287,VALID,2.20547,
2012-03-22, 00:18:04,VALID,1005.85,VALID,0,VALID,76.3498,VALID,0,VALID,25.2611,VALID,306,VALID,1.26992,
2012-03-22, 00:19:04,VALID,1005.82,VALID,0,VALID,76.6474,VALID,0,VALID,25.2221,VALID,312,VALID,1.30469,
2012-03-22, 00:20:04,VALID,1005.81,VALID,0,VALID,76.9525,VALID,0,VALID,25.1618,VALID,264,VALID,0.83125,
2012-03-22, 00:21:04,VALID,1005.81,VALID,0,VALID,77.1661,VALID,0,VALID,25.1248,VALID,311,VALID,0.691016,
2012-03-22, 00:22:04,VALID,1005.8,VALID,0,VALID,77.7307,VALID,0,VALID,25.0858,VALID,323,VALID,0.661719,
2012-03-22, 00:23:04,VALID,1005.77,VALID,0,VALID,77.2958,VALID,0,VALID,25.0663,VALID,309,VALID,0.966797,
2012-03-22, 00:24:04,VALID,1005.79,VALID,0,VALID,77.5476,VALID,0,VALID,25.0469,VALID,287,VALID,1.48164,
2012-03-22, 00:25:04,VALID,1005.8,VALID,0,VALID,78.3639,VALID,0,VALID,25.0663,VALID,314,VALID,0.93125,
2012-03-22, 00:26:04,VALID,1005.78,VALID,0,VALID,78.2189,VALID,0,VALID,25.0469,VALID,299,VALID,1.05039,
2012-03-22, 00:27:04,VALID,1005.78,VALID,0,VALID,79.1573,VALID,0,VALID,25.0274,VALID,283,VALID,0.479297,
2012-03-22, 00:28:04,VALID,1005.76,VALID,0,VALID,79.2793,VALID,0,VALID,25.0274,VALID,243,VALID,0.166016,
2012-03-22, 00:29:04,VALID,1005.73,VALID,0,VALID,78.8826,VALID,0,VALID,25.0079,VALID,304,VALID,0.663281,
2012-03-22, 00:30:04,VALID,1005.75,VALID,0,VALID,78.9971,VALID,0,VALID,24.9885,VALID,341,VALID,0.75,
2012-03-22, 00:31:04,VALID,1005.71,VALID,0,VALID,79.5158,VALID,0,VALID,24.969,VALID,342,VALID,0.201953,
2012-03-22, 00:32:04,VALID,1005.68,VALID,0,VALID,79.7371,VALID,0,VALID,24.93,VALID,342,VALID,0.108594,
2012-03-22, 00:33:04,VALID,1005.7,VALID,0,VALID,80.1109,VALID,0,VALID,24.9495,VALID,303,VALID,0.694141,
2012-03-22, 00:34:04,VALID,1005.68,VALID,0,VALID,80.0651,VALID,0,VALID,24.8892,VALID,304,VALID,0.7375,
2012-03-22, 00:35:04,VALID,1005.67,VALID,0,VALID,80.4313,VALID,0,VALID,24.8911,VALID,324,VALID,0.520703,
2012-03-22, 00:36:04,VALID,1005.67,VALID,0,VALID,80.5076,VALID,0,VALID,24.8716,VALID,321,VALID,0.560938,
2012-03-22, 00:37:04,VALID,1005.67,VALID,0,VALID,80.3397,VALID,0,VALID,24.8113,VALID,277,VALID,0.974609,
2012-03-22, 00:38:04,VALID,1005.64,VALID,0,VALID,81.3925,VALID,0,VALID,24.8113,VALID,277,VALID,0.346484,
2012-03-22, 00:39:04,VALID,1005.61,VALID,0,VALID,82.0181,VALID,0,VALID,24.8327,VALID,277,VALID,0.18125,
2012-03-22, 00:40:04,VALID,1005.59,VALID,0,VALID,82.0333,VALID,0,VALID,24.7743,VALID,277,VALID,0.213281,
2012-03-22, 00:41:04,VALID,1005.54,VALID,0,VALID,81.7969,VALID,0,VALID,24.7159,VALID,313,VALID,0.497656,
2012-03-22, 00:42:04,VALID,1005.54,VALID,0,VALID,82.2546,VALID,0,VALID,24.6964,VALID,317,VALID,0.250781,
2012-03-22, 00:43:04,VALID,1005.52,VALID,0,VALID,82.5826,VALID,0,VALID,24.638,VALID,317,VALID,0.338281,
2012-03-22, 00:44:04,VALID,1005.51,VALID,0,VALID,82.6742,VALID,0,VALID,24.599,VALID,343,VALID,0.697266,
2012-03-22, 00:45:04,VALID,1005.52,VALID,0,VALID,83.1853,VALID,0,VALID,24.5406,VALID,2,VALID,0.313281,
2012-03-22, 00:46:04,VALID,1005.47,VALID,0,VALID,83.7422,VALID,0,VALID,24.5212,VALID,2,VALID,0.187109,
2012-03-22, 00:47:04,VALID,1005.49,VALID,0,VALID,84.3602,VALID,0,VALID,24.422,VALID,2,VALID,0.249219,
2012-03-22, 00:48:04,VALID,1005.48,VALID,0,VALID,84.8789,VALID,0,VALID,24.4043,VALID,2,VALID,0.0617188,
2012-03-22, 00:49:04,VALID,1005.44,VALID,0,VALID,85.3519,VALID,0,VALID,24.3246,VALID,2,VALID,0.00117188,
2012-03-22, 00:50:04,VALID,1005.4,VALID,0,VALID,85.6113,VALID,0,VALID,24.2468,VALID,2,VALID,0,
2012-03-22, 00:51:04,VALID,1005.44,VALID,0,VALID,85.3061,VALID,0,VALID,24.2291,VALID,2,VALID,0.01875,
2012-03-22, 00:52:04,VALID,1005.42,VALID,0,VALID,85.7257,VALID,0,VALID,24.1902,VALID,2,VALID,0,
2012-03-22, 00:53:04,VALID,1005.39,VALID,0,VALID,86.1682,VALID,0,VALID,24.1707,VALID,2,VALID,0,
2012-03-22, 00:54:04,VALID,1005.38,VALID,0,VALID,86.4352,VALID,0,VALID,24.1105,VALID,2,VALID,0,
2012-03-22, 00:55:04,VALID,1005.36,VALID,0,VALID,86.5649,VALID,0,VALID,24.0929,VALID,2,VALID,0,
2012-03-22, 00:56:04,VALID,1005.34,VALID,0,VALID,86.9845,VALID,0,VALID,24.0734,VALID,2,VALID,0,
2012-03-22, 00:57:04,VALID,1005.3,VALID,0,VALID,87.2744,VALID,0,VALID,24.0132,VALID,2,VALID,0,
2012-03-22, 00:58:04,VALID,1005.3,VALID,0,VALID,87.6177,VALID,0,VALID,23.9548,VALID,2,VALID,0,
2012-03-22, 00:59:04,VALID,1005.31,VALID,0,VALID,87.7321,VALID,0,VALID,23.9761,VALID,2,VALID,0.339063,
2012-03-22, 01:00:04,VALID,1005.28,VALID,0,VALID,88.6552,VALID,0,VALID,23.9353,VALID,2,VALID,0.315234,
2012-03-22, 01:01:04,VALID,1005.29,VALID,0,VALID,88.2738,VALID,0,VALID,23.8964,VALID,2,VALID,0.559375,
2012-03-22, 01:02:04,VALID,1005.31,VALID,0,VALID,88.8688,VALID,0,VALID,23.8575,VALID,2,VALID,0.355469,
2012-03-22, 01:03:04,VALID,1005.28,VALID,0,VALID,89.2045,VALID,0,VALID,23.838,VALID,2,VALID,0.436328,
2012-03-22, 01:04:04,VALID,1005.26,VALID,0,VALID,89.7004,VALID,0,VALID,23.8593,VALID,2,VALID,0.417578,
2012-03-22, 01:05:04,VALID,1005.21,VALID,0,VALID,89.5325,VALID,0,VALID,23.7991,VALID,2,VALID,0.580469,
2012-03-22, 01:06:04,VALID,1005.21,VALID,0,VALID,89.9598,VALID,0,VALID,23.8009,VALID,2,VALID,0.372266,
2012-03-22, 01:07:04,VALID,1005.21,VALID,0,VALID,90.1047,VALID,0,VALID,23.7796,VALID,2,VALID,0.407813,
2012-03-22, 01:08:04,VALID,1005.16,VALID,0,VALID,90.3259,VALID,0,VALID,23.7601,VALID,2,VALID,0.477344,
2012-03-22, 01:09:04,VALID,1005.16,VALID,0,VALID,90.6311,VALID,0,VALID,23.7796,VALID,2,VALID,0.437891,
2012-03-22, 01:10:04,VALID,1005.12,VALID,0,VALID,90.7074,VALID,0,VALID,23.7991,VALID,352,VALID,0.495703,
2012-03-22, 01:11:04,VALID,1005.13,VALID,0,VALID,90.86,VALID,0,VALID,23.8185,VALID,352,VALID,0.533984,
2012-03-22, 01:12:04,VALID,1005.1,VALID,0,VALID,90.5777,VALID,0,VALID,23.8185,VALID,351,VALID,0.511719,
2012-03-22, 01:13:04,VALID,1005.06,VALID,0,VALID,90.6845,VALID,0,VALID,23.8398,VALID,351,VALID,0.334375,
2012-03-22, 01:14:04,VALID,1005.06,VALID,0,VALID,90.7379,VALID,0,VALID,23.8575,VALID,351,VALID,0.457031,
2012-03-22, 01:15:04,VALID,1005.03,VALID,0,VALID,90.8218,VALID,0,VALID,23.8964,VALID,351,VALID,0.448438,
2012-03-22, 01:16:04,VALID,1004.99,VALID,0,VALID,90.4404,VALID,0,VALID,23.9566,VALID,347,VALID,0.676953,
2012-03-22, 01:17:04,VALID,1005,VALID,0,VALID,90.3107,VALID,0,VALID,23.9548,VALID,347,VALID,0.237891,
2012-03-22, 01:18:04,VALID,1004.99,VALID,0,VALID,90.509,VALID,0,VALID,23.9955,VALID,347,VALID,0.262891,
2012-03-22, 01:19:04,VALID,1004.95,VALID,0,VALID,90.4785,VALID,0,VALID,24.0326,VALID,347,VALID,0.457422,
2012-03-22, 01:20:04,VALID,1004.93,VALID,0,VALID,90.6311,VALID,0,VALID,24.0539,VALID,347,VALID,0.189453,
2012-03-22, 01:21:04,VALID,1004.93,VALID,0,VALID,90.3946,VALID,0,VALID,24.0521,VALID,14,VALID,0.495703,
2012-03-22, 01:22:04,VALID,1004.88,VALID,0,VALID,90.5396,VALID,0,VALID,24.0716,VALID,14,VALID,0,
2012-03-22, 01:23:04,VALID,1004.85,VALID,0,VALID,90.1886,VALID,0,VALID,24.0697,VALID,334,VALID,0.384375,
2012-03-22, 01:24:04,VALID,1004.85,VALID,0,VALID,90.2268,VALID,0,VALID,24.091,VALID,334,VALID,0.129688,
2012-03-22, 01:25:04,VALID,1004.82,VALID,0,VALID,89.7843,VALID,0,VALID,24.1513,VALID,266,VALID,0.596484,
2012-03-22, 01:26:04,VALID,1004.78,VALID,0,VALID,89.8987,VALID,0,VALID,24.1689,VALID,269,VALID,0.00585938,
2012-03-22, 01:27:04,VALID,1004.74,VALID,0,VALID,89.9292,VALID,0,VALID,24.1884,VALID,269,VALID,0.411328,
2012-03-22, 01:28:04,VALID,1004.72,VALID,0,VALID,89.5936,VALID,0,VALID,24.2078,VALID,358,VALID,0.707812,
2012-03-22, 01:29:04,VALID,1004.73,VALID,0,VALID,89.3723,VALID,0,VALID,24.2097,VALID,355,VALID,0.389062,
2012-03-22, 01:30:04,VALID,1004.66,VALID,0,VALID,89.914,VALID,0,VALID,24.2273,VALID,355,VALID,0.550391,
2012-03-22, 01:31:04,VALID,1004.64,VALID,0,VALID,89.6165,VALID,0,VALID,24.2486,VALID,345,VALID,0.644141,
2012-03-22, 01:32:04,VALID,1004.64,VALID,0,VALID,90.0513,VALID,0,VALID,24.2291,VALID,346,VALID,0.680859,
2012-03-22, 01:33:04,VALID,1004.62,VALID,0,VALID,89.6927,VALID,0,VALID,24.2097,VALID,346,VALID,0.898828,
2012-03-22, 01:34:04,VALID,1004.6,VALID,0,VALID,89.5402,VALID,0,VALID,24.1884,VALID,344,VALID,0.637109,
2012-03-22, 01:35:04,VALID,1004.58,VALID,0,VALID,89.4944,VALID,0,VALID,24.1689,VALID,346,VALID,0.483594,
2012-03-22, 01:36:04,VALID,1004.59,VALID,0,VALID,89.6088,VALID,0,VALID,24.1689,VALID,346,VALID,0.675781,
2012-03-22, 01:37:04,VALID,1004.59,VALID,0,VALID,89.6165,VALID,0,VALID,24.1689,VALID,346,VALID,0.624609,
2012-03-22, 01:38:04,VALID,1004.6,VALID,0,VALID,89.235,VALID,0,VALID,24.1707,VALID,347,VALID,0.571094,
2012-03-22, 01:39:04,VALID,1004.63,VALID,0,VALID,89.3647,VALID,0,VALID,24.1902,VALID,347,VALID,0.469531,
2012-03-22, 01:40:04,VALID,1004.62,VALID,0,VALID,88.5637,VALID,0,VALID,24.1707,VALID,346,VALID,1.20352,
2012-03-22, 01:41:04,VALID,1004.64,VALID,0,VALID,88.3806,VALID,0,VALID,24.13,VALID,348,VALID,0.855469,
2012-03-22, 01:42:04,VALID,1004.62,VALID,0,VALID,88.6476,VALID,0,VALID,24.2097,VALID,349,VALID,0.626953,
2012-03-22, 01:43:04,VALID,1004.6,VALID,0,VALID,88.1441,VALID,0,VALID,24.1884,VALID,358,VALID,1.04922,
2012-03-22, 01:44:04,VALID,1004.6,VALID,0,VALID,87.4804,VALID,0,VALID,24.1884,VALID,345,VALID,0.850781,
2012-03-22, 01:45:04,VALID,1004.57,VALID,0,VALID,87.3354,VALID,0,VALID,24.2468,VALID,347,VALID,1.12617,
2012-03-22, 01:46:04,VALID,1004.57,VALID,0,VALID,86.7709,VALID,0,VALID,24.2468,VALID,343,VALID,0.865625,
2012-03-22, 01:47:04,VALID,1004.55,VALID,0,VALID,86.6793,VALID,0,VALID,24.2468,VALID,347,VALID,0.502734,
2012-03-22, 01:48:04,VALID,1004.55,VALID,0,VALID,86.6183,VALID,0,VALID,24.2662,VALID,348,VALID,0.371094,
2012-03-22, 01:49:04,VALID,1004.5,VALID,0,VALID,86.2979,VALID,0,VALID,24.2857,VALID,328,VALID,0.699219,
2012-03-22, 01:50:04,VALID,1004.52,VALID,0,VALID,85.68,VALID,0,VALID,24.2857,VALID,351,VALID,0.761328,
2012-03-22, 01:51:04,VALID,1004.48,VALID,0,VALID,85.2375,VALID,0,VALID,24.307,VALID,338,VALID,0.778125,
2012-03-22, 01:52:04,VALID,1004.48,VALID,0,VALID,85.6037,VALID,0,VALID,24.3654,VALID,265,VALID,0.558594,
2012-03-22, 01:53:04,VALID,1004.47,VALID,0,VALID,85.268,VALID,0,VALID,24.3441,VALID,269,VALID,0.262109,
2012-03-22, 01:54:04,VALID,1004.46,VALID,0,VALID,85.1383,VALID,0,VALID,24.3654,VALID,276,VALID,0.146875,
2012-03-22, 01:55:04,VALID,1004.46,VALID,0,VALID,85.3595,VALID,0,VALID,24.383,VALID,304,VALID,0.0804688,
2012-03-22, 01:56:04,VALID,1004.44,VALID,0,VALID,85.1536,VALID,0,VALID,24.383,VALID,320,VALID,0.598828,
2012-03-22, 01:57:04,VALID,1004.42,VALID,0,VALID,85.2756,VALID,0,VALID,24.3849,VALID,354,VALID,0.512109,
2012-03-22, 01:58:04,VALID,1004.41,VALID,0,VALID,85.3748,VALID,0,VALID,24.3849,VALID,354,VALID,0.4875,
2012-03-22, 01:59:04,VALID,1004.36,VALID,0,VALID,85.5808,VALID,0,VALID,24.3246,VALID,353,VALID,0.500781,
2012-03-22, 02:00:04,VALID,1004.36,VALID,0,VALID,85.207,VALID,0,VALID,24.3246,VALID,342,VALID,0.686719,
2012-03-22, 02:01:04,VALID,1004.3,VALID,0,VALID,85.474,VALID,0,VALID,24.3052,VALID,339,VALID,0.381641,
2012-03-22, 02:02:04,VALID,1004.28,VALID,0,VALID,85.596,VALID,0,VALID,24.3265,VALID,354,VALID,0.692578,
2012-03-22, 02:03:04,VALID,1004.22,VALID,0,VALID,85.7639,VALID,0,VALID,24.307,VALID,357,VALID,0.485547,
2012-03-22, 02:04:04,VALID,1004.22,VALID,0,VALID,86.3971,VALID,0,VALID,24.2468,VALID,358,VALID,0.174219,
2012-03-22, 02:05:04,VALID,1004.17,VALID,0,VALID,86.1606,VALID,0,VALID,24.2273,VALID,334,VALID,0.505859,
2012-03-22, 02:06:04,VALID,1004.17,VALID,0,VALID,86.42,VALID,0,VALID,24.2468,VALID,338,VALID,0.0214844,
2012-03-22, 02:07:04,VALID,1004.18,VALID,0,VALID,86.8243,VALID,0.0815089,VALID,24.2468,VALID,337,VALID,0.367578,
2012-03-22, 02:08:04,VALID,1004.19,VALID,0,VALID,86.8014,VALID,0,VALID,24.2468,VALID,336,VALID,0.250781,
2012-03-22, 02:09:04,VALID,1004.17,VALID,0,VALID,86.9311,VALID,0,VALID,24.2681,VALID,327,VALID,0.43125,
2012-03-22, 02:10:04,VALID,1004.15,VALID,0,VALID,86.9845,VALID,0,VALID,24.2468,VALID,272,VALID,0.2875,
2012-03-22, 02:11:04,VALID,1004.15,VALID,0,VALID,86.9464,VALID,0,VALID,24.2468,VALID,276,VALID,0.188672,
2012-03-22, 02:12:04,VALID,1004.14,VALID,0,VALID,86.9387,VALID,0,VALID,24.307,VALID,200,VALID,0.380078,
2012-03-22, 02:13:04,VALID,1004.11,VALID,0,VALID,86.9006,VALID,0,VALID,24.2857,VALID,252,VALID,0.3125,
2012-03-22, 02:14:04,VALID,1004.07,VALID,0,VALID,86.9692,VALID,0,VALID,24.2857,VALID,315,VALID,0.389844,
2012-03-22, 02:15:04,VALID,1004.06,VALID,0,VALID,86.809,VALID,0,VALID,24.3052,VALID,300,VALID,0.00195313,
2012-03-22, 02:16:04,VALID,1004.05,VALID,0,VALID,86.6259,VALID,0,VALID,24.3265,VALID,296,VALID,0.610547,
2012-03-22, 02:17:04,VALID,1004.04,VALID,0,VALID,86.4734,VALID,0,VALID,24.3246,VALID,302,VALID,0.720312,
2012-03-22, 02:18:04,VALID,1004.02,VALID,0,VALID,86.3208,VALID,0.0815089,VALID,24.3441,VALID,295,VALID,0.641797,
2012-03-22, 02:19:04,VALID,1003.99,VALID,0,VALID,86.6183,VALID,0,VALID,24.3849,VALID,316,VALID,0.185156,
2012-03-22, 02:20:04,VALID,1004.01,VALID,0,VALID,86.1987,VALID,0,VALID,24.3636,VALID,300,VALID,0.891406,
2012-03-22, 02:21:04,VALID,1004,VALID,0,VALID,86.4581,VALID,0,VALID,24.3636,VALID,285,VALID,0.61875,
2012-03-22, 02:22:04,VALID,1003.98,VALID,0,VALID,86.069,VALID,0,VALID,24.383,VALID,282,VALID,1.52344,
2012-03-22, 02:23:04,VALID,1003.99,VALID,0,VALID,86.1377,VALID,0,VALID,24.383,VALID,305,VALID,0.884766,
2012-03-22, 02:24:04,VALID,1003.94,VALID,0,VALID,86.6946,VALID,0,VALID,24.4238,VALID,308,VALID,0.135937,
2012-03-22, 02:25:04,VALID,1003.89,VALID,0,VALID,86.9235,VALID,0.0815089,VALID,24.422,VALID,308,VALID,0.192188,
2012-03-22, 02:26:04,VALID,1003.88,VALID,0,VALID,87.2439,VALID,0.0815089,VALID,24.422,VALID,308,VALID,0,
2012-03-22, 02:27:04,VALID,1003.85,VALID,0,VALID,86.7709,VALID,0,VALID,24.383,VALID,299,VALID,0.418359,
2012-03-22, 02:28:04,VALID,1003.82,VALID,0,VALID,86.8548,VALID,0,VALID,24.3441,VALID,286,VALID,0.828906,
2012-03-22, 02:29:04,VALID,1003.78,VALID,0,VALID,86.8853,VALID,0,VALID,24.3422,VALID,286,VALID,0.543359,
2012-03-22, 02:30:04,VALID,1003.75,VALID,0,VALID,87.015,VALID,0,VALID,24.3246,VALID,284,VALID,0.111719,
2012-03-22, 02:31:04,VALID,1003.72,VALID,0,VALID,87.0532,VALID,0.0815089,VALID,24.3246,VALID,299,VALID,0.685547,
2012-03-22, 02:32:04,VALID,1003.74,VALID,0,VALID,87.1142,VALID,0.0815089,VALID,24.3246,VALID,279,VALID,0.421484,
2012-03-22, 02:33:04,VALID,1003.69,VALID,0,VALID,87.2057,VALID,0.0815089,VALID,24.3052,VALID,278,VALID,0.213672,
2012-03-22, 02:34:04,VALID,1003.65,VALID,0,VALID,87.1752,VALID,0,VALID,24.3033,VALID,279,VALID,0.207031,
2012-03-22, 02:35:04,VALID,1003.61,VALID,0,VALID,87.4193,VALID,0.0815089,VALID,24.3246,VALID,279,VALID,0,
2012-03-22, 02:36:04,VALID,1003.59,VALID,0,VALID,87.4575,VALID,0,VALID,24.3052,VALID,280,VALID,0.00351562,
2012-03-22, 02:37:04,VALID,1003.53,VALID,0,VALID,87.5109,VALID,0.0815089,VALID,24.2857,VALID,281,VALID,0,
2012-03-22, 02:38:04,VALID,1003.52,VALID,0,VALID,87.4041,VALID,0,VALID,24.307,VALID,341,VALID,0.621094,
2012-03-22, 02:39:04,VALID,1003.49,VALID,0,VALID,87.2515,VALID,0.0815089,VALID,24.2857,VALID,355,VALID,0.680078,
2012-03-22, 02:40:04,VALID,1003.45,VALID,0,VALID,87.4651,VALID,0.0815089,VALID,24.2857,VALID,346,VALID,0.588281,
2012-03-22, 02:41:04,VALID,1003.42,VALID,0,VALID,87.816,VALID,0.0815089,VALID,24.2662,VALID,332,VALID,0.434375,
2012-03-22, 02:42:04,VALID,1003.38,VALID,0,VALID,87.6787,VALID,0,VALID,24.2273,VALID,340,VALID,0.569141,
2012-03-22, 02:43:04,VALID,1003.41,VALID,0,VALID,87.8008,VALID,0,VALID,24.2291,VALID,340,VALID,0.549219,
2012-03-22, 02:44:04,VALID,1003.36,VALID,0,VALID,88.0602,VALID,0.0815089,VALID,24.1884,VALID,340,VALID,0.217969,
2012-03-22, 02:45:04,VALID,1003.36,VALID,0,VALID,88.1822,VALID,0,VALID,24.1902,VALID,340,VALID,0,
2012-03-22, 02:46:04,VALID,1003.34,VALID,0,VALID,88.3577,VALID,0.0815089,VALID,24.1689,VALID,340,VALID,0,
2012-03-22, 02:47:04,VALID,1003.31,VALID,0,VALID,88.167,VALID,0,VALID,24.1513,VALID,340,VALID,0.059375,
2012-03-22, 02:48:04,VALID,1003.28,VALID,0,VALID,88.2509,VALID,0,VALID,24.1105,VALID,295,VALID,0.155469,
2012-03-22, 02:49:04,VALID,1003.25,VALID,0,VALID,88.2661,VALID,0,VALID,24.13,VALID,295,VALID,0.215625,
2012-03-22, 02:50:04,VALID,1003.22,VALID,0,VALID,87.9915,VALID,0,VALID,24.13,VALID,295,VALID,0.361328,
2012-03-22, 02:51:04,VALID,1003.22,VALID,0,VALID,88.228,VALID,0.0815089,VALID,24.13,VALID,295,VALID,0.175781,
2012-03-22, 02:52:04,VALID,1003.21,VALID,0,VALID,87.755,VALID,0,VALID,24.1494,VALID,293,VALID,0.655469,
2012-03-22, 02:53:04,VALID,1003.21,VALID,0,VALID,87.4193,VALID,0,VALID,24.1494,VALID,291,VALID,0.620313,
2012-03-22, 02:54:04,VALID,1003.2,VALID,0,VALID,87.4422,VALID,0,VALID,24.1689,VALID,293,VALID,0.594531,
2012-03-22, 02:55:04,VALID,1003.17,VALID,0,VALID,87.4041,VALID,0,VALID,24.1884,VALID,293,VALID,0.00351562,
2012-03-22, 02:56:04,VALID,1003.17,VALID,0,VALID,87.5948,VALID,0,VALID,24.2078,VALID,293,VALID,0,
2012-03-22, 02:57:04,VALID,1003.16,VALID,0,VALID,87.8389,VALID,0,VALID,24.2273,VALID,293,VALID,0,
2012-03-22, 02:58:04,VALID,1003.12,VALID,0,VALID,88.1059,VALID,0,VALID,24.2468,VALID,293,VALID,0,
2012-03-22, 02:59:04,VALID,1003.1,VALID,0,VALID,87.7703,VALID,0,VALID,24.2681,VALID,293,VALID,0,
2012-03-22, 03:00:04,VALID,1003.09,VALID,0,VALID,87.6863,VALID,0,VALID,24.2273,VALID,293,VALID,0.192969,
2012-03-22, 03:01:04,VALID,1003.11,VALID,0,VALID,87.5109,VALID,0,VALID,24.2273,VALID,293,VALID,0.299609,
2012-03-22, 03:02:04,VALID,1003.11,VALID,0,VALID,87.7321,VALID,0,VALID,24.2291,VALID,293,VALID,0.103516,
2012-03-22, 03:03:04,VALID,1003.09,VALID,0,VALID,87.4727,VALID,0.0815089,VALID,24.2078,VALID,297,VALID,0.300391,
2012-03-22, 03:04:04,VALID,1003.07,VALID,0,VALID,87.2134,VALID,0,VALID,24.2078,VALID,298,VALID,0.244922,
2012-03-22, 03:05:04,VALID,1003.07,VALID,0,VALID,86.9998,VALID,0,VALID,24.2291,VALID,294,VALID,0.433203,
2012-03-22, 03:06:04,VALID,1003.04,VALID,0,VALID,86.7633,VALID,0,VALID,24.2078,VALID,354,VALID,0.855859,
2012-03-22, 03:07:04,VALID,1003.05,VALID,0,VALID,86.7022,VALID,0,VALID,24.2291,VALID,349,VALID,0.599609,
2012-03-22, 03:08:04,VALID,1003.05,VALID,0,VALID,86.7099,VALID,0,VALID,24.2273,VALID,350,VALID,0.39375,
2012-03-22, 03:09:04,VALID,1003.08,VALID,0,VALID,86.4581,VALID,0.0815089,VALID,24.2273,VALID,350,VALID,0.966797,
2012-03-22, 03:10:04,VALID,1003.03,VALID,0,VALID,86.5725,VALID,0,VALID,24.2468,VALID,332,VALID,0.740234,
2012-03-22, 03:11:04,VALID,1003.02,VALID,0,VALID,86.275,VALID,0,VALID,24.2468,VALID,351,VALID,0.332031,
2012-03-22, 03:12:04,VALID,1003,VALID,0,VALID,86.6412,VALID,0,VALID,24.2468,VALID,309,VALID,0.00195313,
2012-03-22, 03:13:04,VALID,1003.01,VALID,0,VALID,86.5802,VALID,0,VALID,24.2662,VALID,309,VALID,0.277734,
2012-03-22, 03:14:04,VALID,1003.01,VALID,0,VALID,85.9546,VALID,0,VALID,24.2681,VALID,339,VALID,0.517578,
2012-03-22, 03:15:04,VALID,1002.99,VALID,0,VALID,85.6113,VALID,0,VALID,24.2449,VALID,327,VALID,0.966797,
2012-03-22, 03:16:04,VALID,1003,VALID,0,VALID,85.3977,VALID,0,VALID,24.2857,VALID,345,VALID,0.983203,
2012-03-22, 03:17:04,VALID,1002.98,VALID,0,VALID,85.0696,VALID,0,VALID,24.3265,VALID,352,VALID,0.501953,
2012-03-22, 03:18:04,VALID,1003,VALID,0,VALID,85.2146,VALID,0,VALID,24.3246,VALID,352,VALID,0.01875,
2012-03-22, 03:19:04,VALID,1002.98,VALID,0,VALID,85.5732,VALID,0.0815089,VALID,24.3422,VALID,355,VALID,0.316016,
2012-03-22, 03:20:04,VALID,1002.96,VALID,0,VALID,85.2222,VALID,0,VALID,24.3422,VALID,357,VALID,0.0273438,
2012-03-22, 03:21:04,VALID,1002.98,VALID,0,VALID,85.0391,VALID,0.0815089,VALID,24.3441,VALID,311,VALID,0.7,
2012-03-22, 03:22:04,VALID,1002.98,VALID,0,VALID,84.8332,VALID,0,VALID,24.3654,VALID,292,VALID,0.61875,
2012-03-22, 03:23:04,VALID,1002.94,VALID,0,VALID,84.7187,VALID,0,VALID,24.3636,VALID,299,VALID,0.926172,
2012-03-22, 03:24:04,VALID,1002.94,VALID,0,VALID,84.5661,VALID,0,VALID,24.3849,VALID,344,VALID,0.366016,
2012-03-22, 03:25:04,VALID,1002.93,VALID,0,VALID,84.7874,VALID,0,VALID,24.383,VALID,344,VALID,0,
2012-03-22, 03:26:04,VALID,1002.92,VALID,0,VALID,84.8484,VALID,0,VALID,24.4025,VALID,330,VALID,0.707812,
2012-03-22, 03:27:04,VALID,1002.9,VALID,0,VALID,84.7111,VALID,0,VALID,24.383,VALID,355,VALID,0.512109,
2012-03-22, 03:28:04,VALID,1002.9,VALID,0,VALID,84.5509,VALID,0.0815089,VALID,24.383,VALID,345,VALID,0.585938,
2012-03-22, 03:29:04,VALID,1002.92,VALID,0,VALID,84.5814,VALID,0,VALID,24.383,VALID,345,VALID,0.172266,
2012-03-22, 03:30:04,VALID,1002.9,VALID,0,VALID,85.1078,VALID,0.0815089,VALID,24.383,VALID,345,VALID,0.0304688,
2012-03-22, 03:31:04,VALID,1002.89,VALID,0,VALID,84.9705,VALID,0,VALID,24.3636,VALID,343,VALID,0.218359,
2012-03-22, 03:32:04,VALID,1002.93,VALID,0,VALID,84.528,VALID,0,VALID,24.3441,VALID,323,VALID,0.421484,
2012-03-22, 03:33:04,VALID,1002.9,VALID,0,VALID,84.5051,VALID,0,VALID,24.3246,VALID,334,VALID,0.311719,
2012-03-22, 03:34:04,VALID,1002.97,VALID,0,VALID,84.7263,VALID,0,VALID,24.3441,VALID,333,VALID,0.134766,
2012-03-22, 03:35:04,VALID,1002.95,VALID,0,VALID,84.0626,VALID,0,VALID,24.3441,VALID,282,VALID,0.905859,
2012-03-22, 03:36:04,VALID,1002.98,VALID,0,VALID,84.0245,VALID,0,VALID,24.3441,VALID,277,VALID,0.516797,
2012-03-22, 03:37:04,VALID,1003.01,VALID,0,VALID,84.2305,VALID,0.0815089,VALID,24.3636,VALID,291,VALID,0.574609,
2012-03-22, 03:38:04,VALID,1002.97,VALID,0,VALID,84.0855,VALID,0,VALID,24.3636,VALID,295,VALID,0.403516,
2012-03-22, 03:39:04,VALID,1002.97,VALID,0,VALID,84.2534,VALID,0,VALID,24.383,VALID,312,VALID,0.40625,
2012-03-22, 03:40:04,VALID,1002.95,VALID,0,VALID,84.3678,VALID,0,VALID,24.3422,VALID,305,VALID,0.090625,
2012-03-22, 03:41:04,VALID,1002.96,VALID,0,VALID,84.5127,VALID,0,VALID,24.3636,VALID,305,VALID,0.192578,
2012-03-22, 03:42:04,VALID,1002.99,VALID,0,VALID,84.6653,VALID,0,VALID,24.3441,VALID,305,VALID,0.223047,
2012-03-22, 03:43:04,VALID,1003.02,VALID,0,VALID,84.8026,VALID,0,VALID,24.3246,VALID,305,VALID,0.148047,
2012-03-22, 03:44:04,VALID,1003.02,VALID,0,VALID,84.9247,VALID,0,VALID,24.3052,VALID,305,VALID,0,